Location: Feydey
(46.3431°N, 7.0106°E)
Time: 09:29:54
(UTC+00:00)

COSMOS 2428 - Visible Passes

Search period start: 28 October 2021 00:00
Search period end: 07 November 2021 00:00
Orbit: 846 x 856 km, 70.9° (Epoch: 28 October)

Date Brightness Start Highest point End Pass type
(mag) Time Alt. Az. Time Alt. Az. Time Alt. Az.
28 Oct 5.3 02:01:15 14° NNE 02:02:48 15° NE 02:06:02 10° ENE visible
28 Oct 3.0 03:43:20 14° NNW 03:48:16 65° ENE 03:53:56 10° SE visible
28 Oct 3.9 05:27:48 10° NW 05:32:00 21° W 05:36:11 10° SSW visible
28 Oct 4.4 16:58:15 10° ESE 17:00:26 12° E 17:02:36 10° ENE visible
28 Oct 2.5 18:38:03 10° SSW 18:43:43 81° ESE 18:45:33 45° NE visible
28 Oct 4.9 20:24:25 10° W 20:27:38 20° WNW 20:27:38 20° WNW visible
29 Oct 5.3 01:50:36 15° NE 01:50:36 15° NE 01:53:50 10° ENE visible
29 Oct 3.0 03:32:43 25° NNW 03:36:04 65° ENE 03:41:44 10° SE visible
29 Oct 3.9 05:15:36 10° NW 05:19:48 21° W 05:23:59 10° SSW visible
29 Oct 2.6 18:25:51 10° SSW 18:31:31 81° ESE 18:34:43 27° NNE visible
29 Oct 4.8 20:12:13 10° W 20:16:29 21° NW 20:16:47 21° NW visible
30 Oct 5.4 01:40:10 13° ENE 01:40:10 13° ENE 01:41:38 10° ENE visible
30 Oct 3.0 03:22:18 46° N 03:23:51 65° ENE 03:29:31 10° SE visible
30 Oct 3.9 05:04:24 14° WNW 05:07:35 21° W 05:11:46 10° SSW visible
30 Oct 2.6 18:13:38 10° SSW 18:19:18 81° ESE 18:23:40 18° NNE visible
30 Oct 4.9 20:00:01 10° W 20:04:17 21° NW 20:05:44 19° NNW visible
31 Oct 3.0 03:11:59 63° E 03:11:59 63° E 03:17:19 10° SE visible
31 Oct 3.9 04:54:07 20° W 04:55:23 21° W 04:59:33 10° SSW visible
31 Oct 2.6 18:01:26 10° SSW 18:07:06 81° ESE 18:12:25 12° NNE visible
31 Oct 4.9 19:47:48 10° W 19:52:04 21° NW 19:54:28 17° NNW visible
01 Nov 3.9 03:01:46 36° SE 03:01:46 36° SE 03:05:07 10° SE visible
01 Nov 3.9 04:43:54 21° WSW 04:43:54 21° WSW 04:47:21 10° SSW visible
01 Nov 2.6 17:49:14 10° SSW 17:54:53 81° ESE 18:00:36 10° NNE visible
01 Nov 4.9 19:35:36 10° W 19:39:52 21° NW 19:43:03 14° N visible
02 Nov 4.8 02:51:32 18° SE 02:51:32 18° SE 02:52:55 10° SE visible
02 Nov 4.4 04:33:40 15° SW 04:33:40 15° SW 04:35:09 10° SSW visible
02 Nov 2.6 17:37:00 10° SSW 17:42:41 81° ESE 17:48:24 10° NNE visible
02 Nov 4.9 19:23:23 10° W 19:27:39 21° NW 19:31:30 12° N visible
03 Nov 2.7 17:24:48 10° SSW 17:30:28 81° ESE 17:36:11 10° NNE visible
03 Nov 4.9 19:11:11 10° W 19:15:27 21° NW 19:19:44 10° N visible
04 Nov 2.7 17:12:35 10° SSW 17:18:16 81° ESE 17:23:58 10° NNE visible
04 Nov 4.9 18:58:58 10° W 19:03:14 21° NW 19:07:31 10° N visible
05 Nov 2.7 17:00:23 10° SSW 17:06:03 81° ESE 17:11:46 10° NNE visible
05 Nov 4.9 18:46:46 10° W 18:51:01 21° NW 18:55:19 10° N visible
06 Nov 2.7 16:48:10 10° SSW 16:53:50 81° ESE 16:59:33 10° NNE visible
06 Nov 4.9 18:34:33 10° W 18:38:48 21° NW 18:43:06 10° N visible
